| time (UTC) | temp F | wind direction | speed MPH | gust MPH | rain 1hr in | rain 24hr in | rain mn in | humidity % | barometer mb |
| 20260506080156 | 55 | 128 | 2.0 | 4.0 | 0.00 | 0.00 | 0.00 | 90 | 1016.5 |
| 20260506072857 | 55 | 130 | 3.0 | 4.0 | 0.00 | 0.00 | 0.00 | 91 | 1016.4 |
| 20260506071757 | 54 | 130 | 2.0 | 3.0 | 0.00 | 0.00 | 0.00 | 91 | 1016.3 |
| 20260506070657 | 54 | 130 | 1.0 | 2.0 | 0.00 | 0.00 | 0.00 | 92 | 1016.2 |
| 20260506062257 | 54 | 130 | 2.0 | 3.0 | 0.00 | 0.00 | 0.00 | 92 | 1016.1 |
| 20260506061157 | 54 | 130 | 2.0 | 3.0 | 0.00 | 0.00 | 0.00 | 91 | 1016.0 |
| 20260506050557 | 52 | 128 | 2.0 | 4.0 | 0.00 | 0.00 | 0.00 | 93 | 1015.8 |
| 20260506043256 | 51 | 120 | 3.0 | 4.0 | 0.00 | 0.00 | 0.00 | 92 | 1015.5 |
| 20260506042156 | 51 | 112 | 3.0 | 4.0 | 0.00 | 0.00 | 0.00 | 92 | 1015.3 |
| 20260506034856 | 52 | 59 | 2.0 | 2.0 | 0.00 | 0.00 | 0.00 | 90 | 1015.0 |
| 20260506033756 | 53 | 59 | 2.0 | 2.0 | 0.00 | 0.00 | 0.00 | 89 | 1014.8 |
| 20260506032657 | 54 | 59 | 2.0 | 3.0 | 0.00 | 0.00 | 0.00 | 87 | 1014.6 |
| 20260506031556 | 55 | 59 | 2.0 | 2.0 | 0.00 | 0.00 | 0.00 | 86 | 1014.5 |
| 20260506030458 | 56 | 59 | 1.0 | 2.0 | 0.00 | 0.00 | 0.00 | 85 | 1014.5 |
| 20260506025356 | 57 | 58 | 2.0 | 3.0 | 0.00 | 0.00 | 0.00 | 83 | 1014.4 |
| 20260506024257 | 57 | 58 | 3.0 | 5.0 | 0.00 | 0.00 | 0.00 | 82 | 1014.4 |
| 20260506023156 | 58 | 71 | 1.0 | 4.0 | 0.00 | 0.00 | 0.00 | 81 | 1014.3 |
| 20260506022056 | 58 | 117 | 2.0 | 4.0 | 0.00 | 0.00 | 0.00 | 82 | 1014.4 |
| 20260506020958 | 58 | 22 | 1.0 | 4.0 | 0.00 | 0.00 | 0.00 | 84 | 1014.3 |
| 20260506015856 | 58 | 24 | 1.0 | 3.0 | 0.00 | 0.00 | 0.00 | 82 | 1014.4 |
| 20260506013657 | 58 | 340 | 2.0 | 3.0 | 0.00 | 0.00 | 0.00 | 83 | 1014.3 |
| 20260506012556 | 58 | 340 | 1.0 | 3.0 | 0.00 | 0.00 | 0.00 | 83 | 1014.2 |
| 20260506011458 | 57 | 340 | 2.0 | 4.0 | 0.00 | 0.00 | 0.00 | 84 | 1014.3 |
| 20260506010356 | 57 | 349 | 2.0 | 4.0 | 0.00 | 0.00 | 0.00 | 85 | 1014.3 |
| 20260506005258 | 57 | 348 | 2.0 | 4.0 | 0.00 | 0.00 | 0.00 | 85 | 1014.3 |
| 20260506004156 | 57 | 355 | 2.0 | 4.0 | 0.00 | 0.00 | 0.00 | 84 | 1014.3 |
| 20260506003056 | 58 | 10 | 3.0 | 6.0 | 0.00 | 0.00 | 0.00 | 84 | 1014.4 |
| 20260506001958 | 58 | 349 | 2.0 | 4.0 | 0.00 | 0.00 | 0.00 | 84 | 1014.3 |
| 20260506000856 | 58 | 315 | 2.0 | 3.0 | 0.00 | 0.00 | 0.00 | 85 | 1014.4 |
| 20260505235756 | 58 | 315 | 3.0 | 6.0 | 0.00 | 0.00 | 0.00 | 83 | 1014.4 |
| 20260505234656 | 58 | 326 | 3.0 | 6.0 | 0.00 | 0.00 | 0.00 | 84 | 1014.6 |
| 20260505233556 | 58 | 5 | 1.0 | 3.0 | 0.00 | 0.00 | 0.00 | 83 | 1014.6 |
| 20260505231357 | 57 | 355 | 0.0 | 2.0 | 0.00 | 0.00 | 0.00 | 83 | 1014.6 |
| 20260505225156 | 56 | 306 | 2.0 | 5.0 | 0.00 | 0.00 | 0.00 | 85 | 1014.8 |
| 20260505224057 | 56 | 314 | 3.0 | 7.0 | 0.00 | 0.00 | 0.00 | 85 | 1014.9 |
| 20260505222959 | 56 | 284 | 2.0 | 6.0 | 0.00 | 0.00 | 0.00 | 85 | 1014.9 |
| 20260505220756 | 56 | 288 | 3.0 | 5.0 | 0.00 | 0.00 | 0.00 | 85 | 1015.0 |
| 20260505215656 | 56 | 294 | 2.0 | 5.0 | 0.00 | 0.00 | 0.00 | 86 | 1015.1 |
| 20260505214556 | 56 | 322 | 2.0 | 4.0 | 0.00 | 0.00 | 0.00 | 87 | 1015.1 |
| 20260505213458 | 56 | 318 | 2.0 | 4.0 | 0.00 | 0.00 | 0.00 | 87 | 1015.1 |
| 20260505212356 | 56 | 307 | 3.0 | 6.0 | 0.00 | 0.00 | 0.00 | 87 | 1015.3 |
| 20260505211256 | 56 | 306 | 3.0 | 6.0 | 0.00 | 0.00 | 0.00 | 87 | 1015.2 |
| 20260505210156 | 56 | 276 | 3.0 | 7.0 | 0.00 | 0.00 | 0.00 | 87 | 1015.2 |
| 20260505205056 | 56 | 309 | 4.0 | 7.0 | 0.00 | 0.00 | 0.00 | 87 | 1015.2 |
| 20260505203958 | 56 | 309 | 2.0 | 5.0 | 0.00 | 0.00 | 0.00 | 87 | 1015.4 |
| 20260505202856 | 56 | 310 | 2.0 | 5.0 | 0.00 | 0.00 | 0.00 | 88 | 1015.4 |
| 20260505201756 | 55 | 288 | 2.0 | 5.0 | 0.00 | 0.00 | 0.00 | 90 | 1015.4 |
| 20260505200656 | 54 | 279 | 2.0 | 4.0 | 0.00 | 0.00 | 0.00 | 93 | 1015.4 |
| 20260505194458 | 53 | 296 | 3.0 | 5.0 | 0.00 | 0.00 | 0.00 | 94 | 1015.6 |
| 20260505193356 | 53 | 296 | 3.0 | 6.0 | 0.00 | 0.00 | 0.00 | 94 | 1015.5 |
| 20260505191156 | 53 | 344 | 2.0 | 5.0 | 0.00 | 0.00 | 0.00 | 94 | 1015.5 |
| 20260505190056 | 53 | 284 | 0.0 | 4.0 | 0.00 | 0.00 | 0.00 | 96 | 1015.5 |
| 20260505185000 | 52 | 288 | 1.0 | 3.0 | 0.00 | 0.00 | 0.00 | 97 | 1015.5 |
| 20260505183856 | 52 | 297 | 2.0 | 4.0 | 0.00 | 0.00 | 0.00 | 97 | 1015.5 |
| 20260505182756 | 51 | 296 | 3.0 | 5.0 | 0.00 | 0.00 | 0.00 | 96 | 1015.6 |
| 20260505181656 | 51 | 248 | 4.0 | 7.0 | 0.00 | 0.00 | 0.00 | 96 | 1015.5 |
| 20260505180556 | 52 | 294 | 2.0 | 4.0 | 0.00 | 0.00 | 0.00 | 97 | 1015.4 |
| 20260505175459 | 51 | 305 | 2.0 | 5.0 | 0.00 | 0.00 | 0.00 | 97 | 1015.4 |
| 20260505174356 | 51 | 325 | 3.0 | 5.0 | 0.00 | 0.00 | 0.00 | 97 | 1015.4 |
| 20260505173256 | 51 | 311 | 3.0 | 7.0 | 0.00 | 0.00 | 0.00 | 97 | 1015.3 |
| 20260505172156 | 51 | 283 | 3.0 | 5.0 | 0.00 | 0.00 | 0.00 | 97 | 1015.3 |
| 20260505171056 | 51 | 291 | 2.0 | 4.0 | 0.00 | 0.00 | 0.00 | 97 | 1015.2 |
| 20260505164856 | 50 | 278 | 2.0 | 5.0 | 0.00 | 0.00 | 0.00 | 97 | 1015.0 |
| 20260505163757 | 50 | 300 | 2.0 | 4.0 | 0.00 | 0.00 | 0.00 | 97 | 1014.9 |
| 20260505162656 | 50 | 280 | 2.0 | 4.0 | 0.00 | 0.00 | 0.00 | 97 | 1015.0 |
| 20260505161556 | 50 | 273 | 2.0 | 4.0 | 0.00 | 0.00 | 0.00 | 97 | 1014.8 |
| 20260505160459 | 50 | 275 | 3.0 | 6.0 | 0.00 | 0.00 | 0.00 | 97 | 1014.9 |
| 20260505153156 | 50 | 254 | 2.0 | 5.0 | 0.00 | 0.00 | 0.00 | 96 | 1014.8 |
| 20260505152056 | 50 | 287 | 3.0 | 5.0 | 0.00 | 0.00 | 0.00 | 96 | 1014.7 |
| 20260505150959 | 50 | 259 | 2.0 | 5.0 | 0.00 | 0.00 | 0.00 | 96 | 1014.6 |
| 20260505124656 | 50 | 279 | 2.0 | 4.0 | 0.00 | 0.00 | 0.00 | 92 | 1013.7 |
| 20260505123556 | 50 | 278 | 2.0 | 4.0 | 0.00 | 0.00 | 0.00 | 92 | 1013.7 |
| 20260505121356 | 50 | 271 | 2.0 | 4.0 | 0.00 | 0.00 | 0.00 | 92 | 1013.6 |
| 20260505120256 | 50 | 269 | 2.0 | 5.0 | 0.00 | 0.00 | 0.00 | 91 | 1013.5 |
| 20260505115156 | 50 | 261 | 1.0 | 4.0 | 0.00 | 0.00 | 0.00 | 91 | 1013.5 |
| 20260505114056 | 50 | 263 | 2.0 | 5.0 | 0.00 | 0.00 | 0.00 | 91 | 1013.4 |
| 20260505112958 | 50 | 233 | 3.0 | 5.0 | 0.00 | 0.00 | 0.00 | 91 | 1013.4 |
| 20260505110756 | 50 | 257 | 2.0 | 5.0 | 0.00 | 0.00 | 0.00 | 91 | 1013.3 |
| 20260505101256 | 51 | 251 | 4.0 | 7.0 | 0.00 | 0.00 | 0.00 | 91 | 1013.0 |
| 20260505100157 | 51 | 254 | 3.0 | 7.0 | 0.00 | 0.00 | 0.00 | 91 | 1013.0 |
| 20260505095057 | 51 | 264 | 3.0 | 7.0 | 0.00 | 0.00 | 0.00 | 91 | 1013.0 |
| 20260505093959 | 51 | 280 | 3.0 | 5.0 | 0.00 | 0.00 | 0.00 | 91 | 1012.9 |
| 20260505092857 | 51 | 275 | 2.0 | 7.0 | 0.00 | 0.00 | 0.00 | 91 | 1012.8 |
| 20260505091757 | 51 | 236 | 2.0 | 4.0 | 0.00 | 0.00 | 0.00 | 91 | 1012.6 |
| 20260505090657 | 51 | 263 | 3.0 | 5.0 | 0.00 | 0.00 | 0.00 | 91 | 1012.7 |
| 20260505085556 | 51 | 261 | 2.0 | 6.0 | 0.00 | 0.00 | 0.00 | 91 | 1012.7 |
| 20260505084459 | 51 | 267 | 3.0 | 7.0 | 0.00 | 0.00 | 0.00 | 92 | 1012.7 |
| 20260505083356 | 50 | 19 | 0.0 | 1.0 | 0.00 | 0.00 | 0.00 | 91 | 1012.6 |
| 20260505081157 | 50 | 14 | 2.0 | 4.0 | 0.00 | 0.00 | 0.00 | 89 | 1012.5 |